Regional Weather Roundup
Issued by NWS New Orleans/Baton Rouge, LA

Home | Current Version | Previous Version | Text Only | Print | Product List | Glossary On
Versions: 1 2 3 4 5 6 7 8 9 10 11 12 13 14 15 16 17 18 19 20 21 22 23 24 25 26 27 28 29 30 31 32 33 34 35 36 37 38 39 40 41 42 43 44 45 46 47 48 49 50
011
ASUS44 KLIX 190401
RWRLIX
NEW ORLEANS REGIONAL WEATHER ROUNDUP
NATIONAL WEATHER SERVICE NEW ORLEANS LA
1100 PM CDT FRI APR 18 2014

NOTE: "FAIR" INDICATES FEW OR NO CLOUDS BELOW 12,000 FEET WITH NO
      SIGNIFICANT WEATHER AND/OR OBSTRUCTIONS TO VISIBILITY.
      SKY/WX - SKY CONDITION AND SIGNIFICANT WEATHER.
      TMP - AIR TEMPERATURE.     DP    - DEWPOINT TEMPERATURE.
      RH  - RELATIVE HUMIDITY.   PRES  - PRESSURE.
      HI  - HEAT INDEX.          WCI   - WIND CHILL INDEX.

*  THESE STATIONS ARE NOT NWS OR FAA STATIONS AND ARE NOT UNDER
   NWS QUALITY CONTROL.

LAZ038-040-048-061>063-065>067-069-190500-
SOUTHEAST LOUISIANA

CITY           SKY/WX    TMP DP  RH WIND       PRES   REMARKS
N.O. AUDUBON     N/A     64  56  76 MISG        N/A
N.O. INTL ARPT PTCLDY    63  56  78 NE9       30.14R
N.O. LAKEFRONT CLEAR     63  56  78 NE13      30.15R
N.O. DOWNTOWN*   N/A     63  52  67 N7        30.15R
SLIDELL        CLEAR     59  54  83 NE6       30.12R
BATON ROUGE    CLEAR     61  57  87 CALM      30.16R
BOOTHVILLE     PTCLDY    62  55  77 N12G20    30.11R
BELLE CHASSE   PTCLDY    61  54  77 N6        30.13R
BOGALUSA*        N/A     58  53  85 N5        30.16R
GALLIANO*      NOT AVBL
NEW ROADS*     NOT AVBL
GONZALES*      NOT AVBL
HAMMOND*       NOT AVBL
HOUMA*         NOT AVBL
PORT FOURCHON* CLEAR     64  57  77 N10       30.15R

$$

MSZ070-080>082-190500-
SOUTHERN MISSISSIPPI

CITY           SKY/WX    TMP DP  RH WIND       PRES   REMARKS
MCCOMB         CLEAR     59  53  80 CALM      30.16R
GULFPORT       PTCLDY    61  52  72 N10       30.11R
BILOXI         NOT AVBL
PASCAGOULA     MOCLDY    59  53  80 N10       30.09F

$$

COASTAL OBSERVATIONS
LAKE AND NEARSHORE STATIONS

STATION/POSITION TIME  TEMP    WIND        PRES    WAVE
                       AIR SEA DIR/SP/G            HT/PER
                 (UTC) (F)     (DEG/KT/KT) (MB)    (FT/S)
PASCAGOULA       0300   59     360/ 11/ 14 1018.3
WAVELAND YACHT   0300   61 67   30/ 13/ 16 1018.9
GRAND ISLE       0300   64 68   30/ 13/ 18 1020.0
SOUTHWEST PASS   0300   63 58   10/ 14/ 16 1019.2
NEW CANAL        0300   63 65   40/ 14/ 17 1020.8
SHELL BEACH      0300   63 63   30/ 18/ 20 1019.6

OFFSHORE STATIONS

STATION/POSITION TIME  TEMP    WIND        PRES    WAVE
                       AIR SEA DIR/SP/G            HT/PER
                 (UTC) (F)     (DEG/KT/KT) (MB)    (FT/S)
64 S DAUPHIN ISL 0256   63 71   10/ 25/ 29 1018.0

$$




USA.gov is the U.S. government's official web portal to all federal, state and local government web resources and services.